Location: Kalberh�ni
(46.4610°N, 7.2453°E)
Time: 14:58:48
(UTC+00:00)

Cosmos 1606 Rocket - Pass Details

Date: 26 October 2021
Orbit: 602 x 633 km, 82.5° (Epoch: 04 December)

Event Time Altitude Azimuth Distance (km) Brightness Sun altitude
Rises 19:29:16 0° 219° (SW) 2,917 7.3 -32.1°
Reaches altitude 10° 19:31:50 10° 233° (SW) 2,014 6.5 -32.5°
Maximum altitude 19:35:32 25° 289° (WNW) 1,278 5.7 -33.1°
Drops below altitude 10° 19:39:16 10° 345° (NNW) 2,019 6.5 -33.7°
Sets 19:41:51 0° 359° (N) 2,928 7.3 -34.2°
